Location: Demirözü
(39.2561°N, 32.3661°E)
Time: 13:54:48
(UTC+00:00)

Daily predictions for brighter satellites

Satellite Brightness Start Highest point End
(mag) Time Altitude Azimuth Time Altitude Azimuth Time Altitude Azimuth
Cosmos 1452 Rocket 3.5 17:18:04 10° S 17:23:14 67° ESE 17:28:26 10° NNE
Cosmos 1607 3.9 17:18:30 10° SSW 17:24:33 69° ESE 17:30:44 10° NE
ISS -1.0 17:23:48 10° WNW 17:26:24 20° NNW 17:29:00 10° NNE
Meteor 2-3 Rocket 3.8 17:20:49 10° N 17:26:25 64° E 17:32:03 10° SSE
SJ-6B 3.5 17:23:37 10° S 17:27:00 48° W 17:30:22 10° NNW
Cosmos 1741 Rocket 4.3 17:24:46 10° N 17:29:58 52° ENE 17:35:05 10° SE
SL-08 R/B 4.5 17:26:39 10° NE 17:30:26 23° E 17:34:09 10° SSE
Cosmos 1459 Rocket 4.0 17:25:19 10° S 17:31:29 66° E 17:37:34 10° NNE
GEOS 3 Rocket 4.3 17:26:54 10° ESE 17:31:55 44° NE 17:37:00 10° NNW
Cosmos 1302 Rocket 4.2 17:27:25 10° S 17:32:20 47° ESE 17:37:17 10° NNE
Cosmos 1536 Rocket 3.6 17:28:06 10° N 17:32:29 90° ENE 17:36:53 10° S
Cosmos 2082 Rocket 2.4 17:27:12 10° S 17:32:42 51° ESE 17:38:12 10° NNE
Terra 2.7 17:28:43 10° SE 17:32:49 31° ENE 17:36:57 10° N
ATLAS CENTAUR Rocket 4.3 17:33:52 10° SSW 17:33:58 10° SSW 17:34:03 10° SSW
USA 305 3.3 17:30:23 10° NW 17:34:18 43° NE 17:37:50 10° ESE
Resurs 01 Rocket 3.9 17:31:18 10° SSW 17:34:55 26° W 17:38:35 10° NW
Cosmos 1802 Rocket 4.2 17:30:34 10° SSE 17:36:32 53° E 17:42:28 10° NNE
ADEOS 4.5 17:33:55 10° SE 17:38:29 32° ENE 17:43:05 10° N
NOSS 3-3 (C) 3.8 17:35:57 10° S 17:40:42 46° ESE 17:46:09 10° NE
Okean 2 Rocket 3.5 17:36:51 10° SSW 17:41:18 69° W 17:45:46 10° N
Cosmos 1743 3.0 17:42:48 10° NNE 17:45:31 30° ENE 17:47:40 14° SE
Cosmos 292 Rocket 4.2 17:42:15 10° NNW 17:46:56 63° WSW 17:51:34 10° S
USA 215 3.9 17:40:42 10° SSE 17:47:00 52° SW 17:53:21 10° NW
Delta 2 Rocket 3.3 17:44:25 10° WSW 17:47:16 33° S 17:49:24 15° ESE
Cosmos 1697 Rocket 3.4 17:43:24 10° NNW 17:48:51 53° WSW 17:54:15 10° S
Cosmos 2100 Rocket 4.3 17:46:44 10° SSW 17:52:56 75° W 17:59:16 10° N
Helios 1A Rocket 2.1 17:51:00 10° NNE 17:54:08 64° ESE 17:57:13 10° S
DELTA 2 R/B (1) 3.6 17:50:50 10° W 17:56:26 89° S 18:02:02 10° E
Cosmos 1455 Rocket 3.0 17:52:08 10° S 17:56:31 76° E 18:00:54 10° N
Meteor 1-27 4.2 17:51:17 10° S 17:56:54 71° E 18:02:28 10° NNE
Meteor 1-31 Rocket 2.6 17:53:38 10° S 17:57:05 77° WSW 18:00:34 10° NNW
IRAS Rocket 4.2 17:53:42 10° SSE 17:59:10 87° ENE 18:04:42 10° NNW
Okean O Rocket 2.8 17:56:46 15° ESE 17:59:19 25° ENE 18:02:49 10° NNE
Cosmos 1850 Rocket 4.1 17:55:01 10° NNW 18:00:11 79° WSW 18:05:21 10° SSE
SL-24 R/B 4.5 17:56:51 10° N 18:01:13 75° WNW 18:06:10 10° SSW
SPOT 5 3.7 17:57:10 10° S 18:01:16 44° W 18:05:28 10° NNW
Cosmos 1892 Rocket 3.6 17:57:43 10° N 18:02:00 61° E 18:05:41 13° SSE
Cosmos 2228 3.0 17:59:31 10° S 18:03:30 53° E 18:07:30 10° NNE
Cosmos 2233 Rocket 4.1 17:57:37 10° SSE 18:03:38 54° E 18:09:36 10° NNE
SL-16 R/B 3.9 17:59:37 10° N 18:03:42 20° NE 18:07:14 12° E
CBERS 1 LM4 rocket 4.5 18:01:34 12° SSE 18:06:08 70° ENE 18:11:16 10° N
USA 186 3.2 18:10:49 17° ENE 18:11:02 17° ENE 18:12:56 10° NNE
SL-08 R/B 4.5 18:06:14 10° S 18:12:29 75° E 18:18:51 10° N
COSMOS 2406 3.4 18:07:52 10° S 18:13:24 51° ESE 18:18:57 10° NNE
MetOp-B 4.1 18:11:31 13° SSE 18:16:25 84° ENE 18:21:47 10° NNW
BREEZE-M DEB (TANK) 4.3 18:12:27 10° W 18:16:45 26° NNW 18:18:57 10° NNE
Cosmos 2084 Rocket 3.7 18:13:24 10° NNW 18:17:34 56° NE 18:19:50 25° ESE
Cosmos 1980 Rocket 2.4 18:14:09 10° NNW 18:19:49 69° WSW 18:24:35 15° S
Okean-O 3.2 18:17:41 23° SE 18:19:55 40° ENE 18:24:01 10° N
BREEZE-M DEB (TANK) 2.9 18:13:34 10° SW 18:20:57 78° SSE 18:23:35 10° ENE
Cosmos 1725 Rocket 4.3 18:15:57 10° SSW 18:22:12 72° W 18:28:27 10° N
CZ-4 R/B 2.6 18:19:21 10° SSW 18:22:40 35° W 18:26:02 10° NNW
Cosmos 1782 3.0 18:19:52 10° SSW 18:23:19 59° W 18:26:48 10° N
Spot 2 Rocket 3.7 18:22:02 22° SE 18:25:05 55° ENE 18:30:00 10° N
ATLAS 3B R/B 3.8 18:20:04 10° NW 18:27:09 43° WSW 18:33:46 10° S
Cosmos 1933 4.2 18:27:19 26° E 18:27:37 26° E 18:30:50 10° NNE
ERS-1 Rocket 3.5 18:26:32 11° S 18:31:19 57° W 18:36:16 10° NNW
Cosmos 2333 Rocket 3.4 18:26:41 10° N 18:31:35 28° ENE 18:34:15 20° E
Cosmos 1758 Rocket 4.3 18:28:12 10° N 18:32:18 36° ENE 18:33:36 29° ESE
Milstar 3 3.9 18:30:30 10° WSW 18:36:16 29° S 18:39:43 22° SSE
Tsikada Rocket 3.9 18:30:16 10° N 18:36:27 80° E 18:40:46 21° SSE
CZ-4B R/B 3.7 18:37:33 14° S 18:42:21 61° WSW 18:47:55 10° NNW
Cosmos 2360 Rocket 3.8 18:41:19 10° N 18:45:39 22° NE 18:47:55 17° E
CZ-4B R/B 4.3 18:45:46 28° E 18:47:01 32° ENE 18:51:15 10° N
Cosmos 1992 Rocket 4.5 18:42:57 10° SSW 18:48:06 61° WNW 18:53:16 10° NNE
Cosmos 1461 3.0 18:46:41 10° SW 18:50:20 61° WNW 18:54:00 10° NNE
Cosmos 1602 Rocket 4.2 18:52:30 10° N 18:56:31 36° ENE 18:56:50 36° E
Cosmos 2219 Rocket 4.0 18:55:15 10° N 18:58:59 18° NE 19:01:07 15° ENE
USA 305 3.9 18:56:04 10° WNW 18:59:23 26° SW 18:59:50 25° SW
Cosmos 220 Rocket 3.7 19:00:17 55° S 19:01:03 73° ESE 19:05:07 10° NNE
Cosmos 1437 Rocket 2.4 19:02:54 70° SSW 19:03:15 84° W 19:06:51 10° N
ISS -0.4 19:03:48 10° N 19:04:13 10° N 19:04:36 10° N
Gbstr 26 Del rocket 4.0 19:00:21 10° WNW 19:04:40 33° SW 19:05:31 30° SSW
Cosmos 2098 Rocket 3.4 19:07:46 49° ESE 19:08:13 51° E 19:12:30 10° NNE
Cosmos 1513 Rocket 4.4 19:06:37 31° S 19:09:44 76° E 19:15:53 10° N
Terra 3.7 19:06:34 10° SSW 19:10:19 25° W 19:14:10 10° NW
Cosmos 1464 Rocket 4.1 19:09:12 40° SE 19:10:52 51° E 19:16:49 10° NNE
Cosmos 1626 Rocket 3.7 19:08:34 10° NNW 19:12:55 69° W 19:14:01 47° SSW
IRS-1C Rocket 4.2 19:12:43 47° ESE 19:13:55 59° ENE 19:19:06 10° N
Cosmos 2322 Rocket 2.9 19:12:23 10° N 19:17:42 40° ENE 19:18:59 35° E
Cosmos 1486 Rocket 4.4 19:14:26 10° N 19:19:32 47° ENE 19:20:20 44° E
Cosmos 2151 2.8 19:17:43 10° N 19:21:50 75° W 19:22:05 71° SW
Cosmos 1606 Rocket 3.8 19:26:21 54° ENE 19:26:21 54° ENE 19:30:05 10° NNE
Meteor 2-10 4.4 19:21:50 10° N 19:27:27 53° ENE 19:28:15 49° ESE
Cosmos 1072 Rocket 4.4 19:26:52 44° S 19:28:59 80° E 19:35:20 10° N
Cosmos 540 Rocket 3.8 19:33:38 48° E 19:33:38 48° E 19:38:02 10° NNE
CZ-4B R/B 3.5 19:35:01 44° NW 19:35:01 44° NW 19:37:39 10° NNW
Cosmos 1726 Rocket 4.4 19:35:41 35° NE 19:35:41 35° NE 19:38:19 10° NNE
Okean O Rocket 3.2 19:34:00 22° SW 19:35:22 26° W 19:39:00 10° NW
Chandra Rocket (1) 4.1 19:20:24 10° W 19:37:22 40° SSW 19:38:38 38° S
DELTA 2 R/B (1) 3.4 19:37:18 10° W 19:42:53 85° S 19:43:28 72° ESE
Cosmos 2278 3.6 19:37:59 10° NNW 19:43:44 88° WSW 19:44:30 68° SSE
Meteor 1-5 Rocket 4.2 19:40:39 10° N 19:46:28 85° E 19:47:20 67° SSE
SL-16 R/B 2.3 19:42:38 10° NNW 19:48:14 62° WSW 19:49:05 55° SSW
NOSS 3-4 (A) 4.0 19:41:56 10° NNW 19:48:54 70° NE 19:51:14 48° ESE
Cosmos 2034 Rocket 3.9 19:48:13 61° SE 19:49:10 70° E 19:55:28 10° NNE
NOSS 3-4 (C) 4.0 19:42:34 10° NNW 19:49:32 69° NE 19:51:53 47° ESE
Okean 1-7 Rocket 3.8 19:49:15 10° N 19:53:16 71° NNW 19:53:16 71° NNW
Geosat 4.2 19:50:57 10° NNE 19:55:06 57° ENE 19:55:06 57° ENE
Cosmos-2242 4.5 19:57:48 28° NE 19:57:48 28° NE 19:59:59 10° NNE
Ariane Rocket 3.4 19:58:02 50° WSW 19:58:28 52° W 20:03:25 10° NNW
Nadezhda 4 Rocket 4.0 20:04:43 10° NNW 20:10:47 68° W 20:11:39 60° SW
Cosmos 1634 Rocket 4.1 20:13:07 58° E 20:13:07 58° E 20:19:01 10° NNE
Cosmos 1763 Rocket 3.9 20:13:22 55° W 20:13:58 59° WNW 20:19:12 10° N
Cosmos 2333 Rocket 3.0 20:10:38 10° NW 20:15:57 41° WSW 20:16:16 40° WSW
Cosmos 2297 Rocket 4.3 20:20:00 14° ENE 20:20:00 14° ENE 20:21:09 10° ENE
Cosmos 990 Rocket 4.2 20:22:30 10° NNW 20:26:57 66° NNW 20:26:57 66° NNW
Cosmos 44 4.3 20:23:46 10° NNW 20:28:39 43° NE 20:28:39 43° NE
Cosmos 2195 Rocket 4.4 20:22:52 10° N 20:29:02 73° W 20:29:20 71° WSW
Cosmos 2360 Rocket 2.6 20:24:26 10° NNW 20:29:39 55° W 20:29:39 55° W
Cosmos 2026 Rocket 3.9 20:27:07 10° N 20:33:31 81° W 20:33:45 79° SW
Cosmos 2058 Rocket 4.3 20:37:19 38° N 20:37:19 38° N 20:40:06 10° N
Cosmos 1627 Rocket 4.4 20:30:39 10° N 20:37:03 80° W 20:37:15 79° WSW
ISS -0.5 20:40:14 10° NNW 20:41:23 14° N 20:41:23 14° N
Cosmos 2219 Rocket 2.4 20:37:49 10° NNW 20:42:48 64° WNW 20:42:48 64° WNW
Cosmos 841 Rocket 4.5 20:48:18 40° NE 20:48:18 40° NE 20:51:42 10° NNE
ARIANE 5 R/B 4.1 20:54:55 33° NNE 20:54:55 33° NNE 20:57:37 10° N
ALOS 2 4.3 20:56:35 30° NNE 20:56:35 30° NNE 20:59:07 10° N
Cosmos 2322 Rocket 3.7 20:56:48 10° NW 21:00:46 26° W 21:00:46 26° W
CZ-2C R/B 4.1 21:17:31 28° ENE 21:17:31 28° ENE 21:21:31 10° N
Cosmos 2237 Rocket 3.5 21:15:17 10° N 21:20:16 31° ENE 21:20:30 30° ENE
Aureole 1 Rocket 4.5 21:17:16 10° NNW 21:22:39 53° W 21:22:39 53° W
Cosmos 2227 Rocket 3.9 21:29:18 23° ENE 21:29:18 23° ENE 21:32:07 10° NE
Cosmos 1937 Rocket 4.4 21:25:47 10° NNW 21:29:23 46° N 21:29:23 46° N
COSMOS 2428 3.2 21:25:42 10° NNW 21:30:13 58° NNW 21:30:13 58° NNW
NOSS 0 Rocket 4.1 21:25:52 10° NNW 21:31:29 65° NNE 21:31:29 65° NNE
Meteor 1-11 Rocket 4.2 21:28:47 10° N 21:33:18 57° N 21:33:18 57° N
Cosmos 2263 Rocket 4.2 21:39:15 18° ENE 21:39:15 18° ENE 21:41:28 10° NE
ATLAS 5 CENTAUR R/B 4.5 21:40:01 28° E 21:40:01 28° E 21:48:45 10° NE
USA 234 3.5 21:39:35 10° NE 21:46:04 66° NW 21:47:10 57° W
Meteor 1-27 Rocket 4.1 21:50:12 63° N 21:50:12 63° N 21:54:58 10° N
SeaSat 1 4.3 21:49:01 23° ENE 21:49:35 23° NE 21:53:26 10° N
ACS3 Solar Sail 2.9 21:49:14 10° NNE 21:53:51 31° E 21:53:51 31° E
CZ-2C R/B 3.6 21:49:55 10° N 21:54:49 65° N 21:54:49 65° N
Cosmos 2297 Rocket 2.8 22:01:44 53° NNW 22:01:44 53° NNW 22:06:31 10° NNE
Meteor 2-10 Rocket 4.2 22:11:13 10° N 22:16:03 55° NE 22:16:03 55° NE
BREEZE-M DEB (TANK) 4.2 22:06:25 10° WSW 22:25:52 73° NW 22:30:57 10° NE
CENTAUR R/B 4.4 22:32:14 14° E 22:32:14 14° E 22:34:30 10° ENE
IDEFIX/ARIANE 42P 4.1 22:38:20 10° NE 22:42:24 26° E 22:42:24 26° E
Meteor 1-18 Rocket 4.4 22:44:04 65° NNW 22:44:04 65° NNW 22:48:56 10° N
Cosmos 2219 3.8 22:51:04 46° E 22:51:04 46° E 22:55:52 10° NE
Lacrosse 4 Rocket 3.6 22:51:57 19° NNW 22:51:57 19° NNW 22:53:56 10° N
SL-16 R/B 3.0 22:47:10 10° NNW 22:52:39 46° ENE 22:53:44 41° E
CZ-2C R/B 4.0 22:58:57 27° WNW 22:58:57 27° WNW 23:01:54 10° NNW
Iridium 4 Rocket 4.5 23:04:44 41° WNW 23:04:44 41° WNW 23:09:30 10° NNW
Cosmos 2237 Rocket 3.5 22:59:10 10° NW 23:02:16 28° WNW 23:02:16 28° WNW
In-Cosmos 22 4.4 23:05:14 61° NW 23:05:14 61° NW 23:10:15 10° N
Cosmos 1417 Rocket 4.4 23:10:22 69° SE 23:10:48 72° E 23:16:55 10° N
Cosmos 2227 Rocket 3.0 23:11:04 38° WNW 23:11:10 38° WNW 23:16:27 10° N
ADEOS Rocket 3.9 23:13:20 10° NNE 23:20:43 52° E 23:22:56 39° SE
Cosmos 2263 Rocket 2.6 23:20:54 50° WNW 23:20:54 50° WNW 23:26:19 10° NNE
Nimbus 7 Rocket 4.3 23:15:39 10° NNE 23:21:41 77° ESE 23:22:13 71° SSE
Cosmos 1151 Rocket 4.3 23:25:13 35° NNW 23:25:13 35° NNW 23:28:01 10° N
BREEZE-M DEB (TANK) 4.5 23:23:10 27° N 23:24:15 35° NNE 23:30:36 10° E
SeaSat 1 3.7 23:28:37 30° WNW 23:28:37 30° WNW 23:31:22 10° NW
Cosmos 1633 Rocket 4.4 23:31:36 10° NNE 23:35:29 32° ENE 23:36:20 29° E
ACS3 Solar Sail 2.5 23:31:27 10° N 23:36:51 36° WNW 23:37:20 36° W
Cosmos 1943 4.4 23:31:51 10° N 23:37:08 40° ENE 23:42:21 10° SE
S3M 3.8 23:40:11 66° SW 23:41:03 77° W 23:47:13 10° N
Cosmos 1570 Rocket 4.0 23:42:50 69° WNW 23:42:56 69° WNW 23:48:14 10° NNE
ATLAS 2AS CENTAUR R/B 3.8 23:37:43 10° NNW 23:44:07 42° NE 23:50:31 10° ESE
Resurs 1-4 Rocket 3.6 23:45:42 10° NE 23:50:11 28° E 23:52:31 20° SE
MSX 3.8 23:45:24 10° N 23:51:09 73° WNW 23:52:04 61° SW
Cosmos 2315 Rocket 3.9 23:50:00 57° SSW 23:51:25 82° W 23:57:47 10° N
Cosmos 1125 Rocket 3.8 23:46:18 10° NNW 23:50:48 51° WNW 23:50:48 51° WNW
Cosmos 1844 Rocket 3.0 23:50:47 47° SSE 23:51:54 56° ESE 23:57:21 10° NNE
Cosmos 2082 3.8 23:53:05 55° W 23:53:47 60° WNW 23:59:21 10° NNE
